User: anonymous
Location: Tyler Bend Campground
(35.9875°N, 92.7606°W)
Time: 12:51:57
(UTC-05:00)
Language:

CZ-2C R/B - Orbit

View from above orbital plane
View from above orbital plane
View from above satellite
View from above satellite

Ground track
Ground track

The orbit data is extracted from the following two-line orbital elements,

1 36089U 09061B   14261.73266433  .00000196  00000-0  60983-4 0  4249
2 36089 098.0988 290.9970 0081521 250.9087 244.4457 14.49218762256483
Epoch (UTC): 18 September 2014 17:35:02
Eccentricity: 0.0081521
inclination: 98.0988°
perigee height: 670 km
apogee height: 786 km
right ascension of ascending node: 290.9970°
argument of perigee: 250.9087°
revolutions per day: 14.49218762
mean anomaly at epoch: 244.4457°
orbit number at epoch: 25648

The dashed part of the orbit path shows where the satellite is in the earth's shadow,  

DLR